Location: Izdebno
(52.6670°N, 16.2170°E)
Time: 04:32:31
(UTC+02:00)

SR - Pass Details

Date: 28 February 2024
Orbit: 577 x 862 km, 66.7° (Epoch: 22 April)

Event Time Altitude Azimuth Distance (km) Brightness Sun altitude
Rises 20:19:19 0° 314° (NW) 3,330 ? -25.8°
Reaches altitude 10° 20:22:17 10° 328° (NNW) 2,349 ? -26.3°
Maximum altitude 20:26:37 24° 22° (NNE) 1,518 ? -26.9°
Enters shadow 20:26:43 24° 24° (NNE) 1,517 ? -26.9°
Drops below altitude 10° 20:30:40 10° 76° (ENE) 2,187 - -27.4°
Sets 20:33:20 0° 91° (E) 3,048 - -27.8°
